TimeCST,TemperatureF,Dew PointF,Humidity,Sea Level PressureIn,VisibilityMPH,Wind Direction,Wind SpeedMPH,Gust SpeedMPH,PrecipitationIn,Events,Conditions,WindDirDegrees,DateUTC
12:52 AM,21.9,19.0,89,30.06,10.0,SSE,5.8,-,N/A,,Overcast,160,2013-02-22 06:52:00
1:52 AM,21.9,19.0,89,30.05,10.0,South,4.6,-,N/A,,Overcast,170,2013-02-22 07:52:00
2:52 AM,21.0,18.0,88,30.04,10.0,SE,5.8,-,N/A,,Overcast,140,2013-02-22 08:52:00
3:52 AM,19.0,17.1,92,30.03,10.0,SSE,4.6,-,N/A,,Partly Cloudy,150,2013-02-22 09:52:00
4:52 AM,18.0,16.0,92,30.02,10.0,SSE,4.6,-,N/A,,Partly Cloudy,160,2013-02-22 10:52:00
5:52 AM,17.1,15.1,92,30.02,10.0,Calm,Calm,-,N/A,,Clear,0,2013-02-22 11:52:00
6:52 AM,15.8,15.8,100,29.92,10.0,South,3.5,-,N/A,,Clear,180,2013-02-22 12:52:00
7:52 AM,10.9,10.9,100,30.03,8.0,Calm,Calm,-,N/A,,Clear,0,2013-02-22 13:52:00
8:52 AM,14.0,12.0,92,30.01,9.0,South,3.5,-,N/A,,Partly Cloudy,180,2013-02-22 14:52:00
9:52 AM,19.4,15.8,86,29.90,10.0,South,5.8,-,N/A,,Clear,180,2013-02-22 15:52:00
10:52 AM,21.9,17.1,82,29.99,10.0,South,5.8,-,N/A,,Clear,190,2013-02-22 16:52:00
11:52 AM,25.0,19.0,78,29.97,10.0,SSE,5.8,-,N/A,,Clear,160,2013-02-22 17:52:00
12:52 PM,27.0,19.9,75,29.95,10.0,South,8.1,-,N/A,,Clear,170,2013-02-22 18:52:00
1:52 PM,30.0,21.9,72,29.92,10.0,SSE,9.2,-,N/A,,Clear,150,2013-02-22 19:52:00
2:52 PM,32.0,23.0,69,29.89,10.0,South,9.2,-,N/A,,Clear,190,2013-02-22 20:52:00
3:52 PM,33.1,24.1,70,29.87,10.0,South,6.9,-,N/A,,Partly Cloudy,170,2013-02-22 21:52:00
4:52 PM,34.0,25.0,70,29.86,10.0,South,6.9,-,N/A,,Clear,170,2013-02-22 22:52:00
6:52 PM,30.9,24.1,76,29.85,10.0,SSE,4.6,-,N/A,,Clear,160,2013-02-23 00:52:00
7:52 PM,28.0,23.0,81,29.85,10.0,Calm,Calm,-,N/A,,Clear,0,2013-02-23 01:52:00
8:52 PM,27.0,21.9,81,29.83,10.0,Calm,Calm,-,N/A,,Clear,0,2013-02-23 02:52:00
9:52 PM,25.0,21.9,88,29.81,10.0,Calm,Calm,-,N/A,,Clear,0,2013-02-23 03:52:00
10:52 PM,21.9,21.0,96,29.80,10.0,Calm,Calm,-,N/A,,Clear,0,2013-02-23 04:52:00
11:52 PM,21.9,19.0,89,29.78,10.0,Calm,Calm,-,N/A,,Clear,0,2013-02-23 05:52:00